Location: *
(50.3440°N, 18.6237°E)
Time: 17:07:56
(UTC+00:00)

Cosmos 44 - Pass Details

Date: 30 November 2020
Orbit: 574 x 788 km, 65.1° (Epoch: 17 January)

Event Time Altitude Azimuth Distance (km) Brightness Sun altitude
Rises 15:22:56 0° 319° (NW) 3,180 6.9 -6.0°
Reaches altitude 10° 15:25:17 10° 320° (NW) 2,281 6.1 -6.3°
Maximum altitude 15:30:34 85° 49° (NE) 783 3.5 -7.1°
Drops below altitude 10° 15:36:00 10° 139° (SE) 2,341 5.9 -7.8°
Sets 15:38:26 0° 140° (SE) 3,270 6.6 -8.2°
